Bluffton, MN

10:32 AM CDT on August 28, 2016 (GMT -0500)
Wadena Municipal

Weather History for KADC - August, 2014

Change the Weather History Date:

Wednesday, August 13, 2014

  Actual Average Record
Temperature  
Mean Temperature 66 °F -  
Max Temperature 78 °F 78 °F 99 °F (1965)
Min Temperature 55 °F 55 °F 37 °F (1964)
Cooling Degree Days 2    
Growing Degree Days 16 (Base 50)    
Moisture  
Dew Point 57 °F    
Average Humidity 70    
Maximum Humidity 94    
Minimum Humidity 44    
Precipitation  
Precipitation 0.00 in - - ()
Sea Level Pressure  
Sea Level Pressure 30.08 in    
Wind  
Wind Speed 4 mph (NNE)    
Max Wind Speed 7 mph    
Max Gust Speed -    
Visibility 10 miles    
Events      
Averages and records for this station are not official NWS values.
T = Trace of Precipitation, MM = Missing Value Source: NWS Daily Summary

Daily Weather History Graph

Daily Weather History Graph

Search for Another Location

Airport or City:

Trip Planner

Search our weather history database for the weather conditions in past years. The results will help you decide how hot, cold, wet, or windy it might be!

Date:

Astronomy

Aug. 13, 2014 Rise Set
Actual Time 6:16 AM CDT 8:33 PM CDT
Civil Twilight 5:43 AM CDT 9:06 PM CDT
Nautical Twilight 5:02 AM CDT 9:47 PM CDT
Astronomical Twilight 4:15 AM CDT 10:34 PM CDT
Moon 10:02 PM CDT (8/13) 10:01 AM CDT (8/13)
Length of Visible Light 15h 23m
Length of Day
14h 16m
Waning Gibbous, 87% of the Moon is Illuminated
Aug 13
Waning Gibbous
Aug 17
Last Quarter
Aug 25
New
Sep 2
First Quarter
Sep 8
Full

Hourly Weather History & Observations

Time (CDT) Temp. Dew Point Humidity Pressure Visibility Wind Dir Wind Speed Gust Speed Precip Events Conditions
12:15 AM 60.8 °F 55.4 °F 82% 30.04 in 10.0 mi WSW 5.8 mph - N/A   Scattered Clouds
12:35 AM 60.8 °F 55.4 °F 82% 30.04 in 10.0 mi WSW 5.8 mph - N/A   Clear
1:15 AM 60.8 °F 55.4 °F 82% 30.04 in 10.0 mi West 6.9 mph - N/A   Clear
1:35 AM 60.8 °F 55.4 °F 82% 30.04 in 10.0 mi West 6.9 mph - N/A   Clear
1:52 AM 60.8 °F 55.4 °F 82% 30.04 in 10.0 mi West 5.8 mph - N/A   Clear
2:14 AM 60.8 °F 57.2 °F 88% 30.04 in 10.0 mi West 5.8 mph - N/A   Clear
2:35 AM 60.8 °F 55.4 °F 82% 30.04 in 10.0 mi West 4.6 mph - N/A   Clear
2:53 AM 60.8 °F 55.4 °F 82% 30.05 in 10.0 mi West 4.6 mph - N/A   Clear
3:15 AM 60.8 °F 55.4 °F 82% 30.05 in 10.0 mi West 4.6 mph - N/A   Clear
3:34 AM 60.8 °F 55.4 °F 82% 30.05 in 10.0 mi West 3.5 mph - N/A   Clear
3:53 AM 59.0 °F 55.4 °F 88% 30.05 in 10.0 mi West 4.6 mph - N/A   Clear
4:15 AM 59.0 °F 55.4 °F 88% 30.05 in 10.0 mi West 4.6 mph - N/A   Clear
4:35 AM 59.0 °F 55.4 °F 88% 30.05 in 10.0 mi Calm Calm - N/A   Clear
4:53 AM 57.2 °F 55.4 °F 94% 30.06 in 10.0 mi Calm Calm - N/A   Clear
5:15 AM 57.2 °F 55.4 °F 94% 30.06 in 10.0 mi Calm Calm - N/A   Clear
5:35 AM 55.4 °F 53.6 °F 94% 30.07 in 10.0 mi Calm Calm - N/A   Clear
5:53 AM 55.4 °F 53.6 °F 94% 30.07 in 10.0 mi Calm Calm - N/A   Clear
6:14 AM 55.4 °F 53.6 °F 94% 30.07 in 10.0 mi Calm Calm - N/A   Clear
6:34 AM 55.4 °F 53.6 °F 94% 30.08 in 7.0 mi Calm Calm - N/A   Clear
7:53 AM 60.8 °F 57.2 °F 88% 30.10 in 10.0 mi Calm Calm - N/A   Scattered Clouds
8:35 AM 64.4 °F 59.0 °F 83% 30.10 in 10.0 mi East 3.5 mph - N/A   Clear
8:52 AM 64.4 °F 60.8 °F 88% 30.10 in 10.0 mi Calm Calm - N/A   Clear
9:15 AM 66.2 °F 60.8 °F 83% 30.11 in 10.0 mi ENE 4.6 mph - N/A   Clear
9:35 AM 68.0 °F 60.8 °F 78% 30.11 in 10.0 mi East 4.6 mph - N/A   Clear
10:14 AM 69.8 °F 60.8 °F 73% 30.11 in 10.0 mi Calm Calm - N/A   Clear
10:35 AM 71.6 °F 60.8 °F 69% 30.11 in 10.0 mi East 4.6 mph - N/A   Clear
10:53 AM 71.6 °F 60.8 °F 69% 30.11 in 10.0 mi Calm Calm - N/A   Clear
11:14 AM 73.4 °F 60.8 °F 65% 30.11 in 10.0 mi NE 3.5 mph - N/A   Clear
11:35 AM 73.4 °F 60.8 °F 65% 30.11 in 10.0 mi North 4.6 mph - N/A   Clear
11:52 AM 73.4 °F 60.8 °F 65% 30.11 in 10.0 mi NNW 4.6 mph - N/A   Scattered Clouds
12:14 PM 75.2 °F 59.0 °F 57% 30.11 in 10.0 mi North 5.8 mph - N/A   Scattered Clouds
12:35 PM 75.2 °F 60.8 °F 61% 30.10 in 10.0 mi NNE 6.9 mph - N/A   Scattered Clouds
12:53 PM 75.2 °F 59.0 °F 57% 30.10 in 10.0 mi NE 5.8 mph - N/A   Scattered Clouds
1:15 PM 75.2 °F 57.2 °F 53% 30.10 in 10.0 mi NNW 4.6 mph - N/A   Clear
1:35 PM 75.2 °F 57.2 °F 53% 30.10 in 10.0 mi NNE 5.8 mph - N/A   Scattered Clouds
1:53 PM 77.0 °F 57.2 °F 50% 30.09 in 10.0 mi North 3.5 mph - N/A   Clear
2:15 PM 77.0 °F 57.2 °F 50% 30.09 in 10.0 mi Calm Calm - N/A   Scattered Clouds
2:35 PM 78.8 °F 57.2 °F 47% 30.09 in 10.0 mi North 4.6 mph - N/A   Scattered Clouds
3:14 PM 78.8 °F 57.2 °F 47% 30.08 in 10.0 mi North 6.9 mph - N/A   Clear
3:34 PM 78.8 °F 55.4 °F 44% 30.08 in 10.0 mi North 3.5 mph - N/A   Clear
3:53 PM 78.8 °F 57.2 °F 47% 30.08 in 10.0 mi NNE 5.8 mph - N/A   Scattered Clouds
4:15 PM 78.8 °F 57.2 °F 47% 30.08 in 10.0 mi Calm Calm - N/A   Scattered Clouds
4:35 PM 78.8 °F 55.4 °F 44% 30.07 in 10.0 mi NE 3.5 mph - N/A   Scattered Clouds
4:53 PM 78.8 °F 55.4 °F 44% 30.07 in 10.0 mi Calm Calm - N/A   Clear
5:15 PM 78.8 °F 57.2 °F 47% 30.07 in 10.0 mi East 6.9 mph - N/A   Scattered Clouds
5:34 PM 78.8 °F 57.2 °F 47% 30.07 in 10.0 mi NE 4.6 mph - N/A   Scattered Clouds
5:53 PM 77.0 °F 57.2 °F 50% 30.07 in 10.0 mi NE 4.6 mph - N/A   Clear
6:15 PM 77.0 °F 59.0 °F 54% 30.07 in 10.0 mi ENE 4.6 mph - N/A   Clear
6:35 PM 75.2 °F 59.0 °F 57% 30.07 in 10.0 mi East 4.6 mph - N/A   Clear
6:52 PM 73.4 °F 59.0 °F 61% 30.07 in 10.0 mi East 4.6 mph - N/A   Clear
7:15 PM 73.4 °F 57.2 °F 57% 30.07 in 10.0 mi East 4.6 mph - N/A   Clear
7:53 PM 71.6 °F 57.2 °F 60% 30.07 in 10.0 mi East 5.8 mph - N/A   Clear
8:34 PM 68.0 °F 57.2 °F 68% 30.08 in 10.0 mi East 4.6 mph - N/A   Clear
8:52 PM 66.2 °F 57.2 °F 73% 30.08 in 10.0 mi East 4.6 mph - N/A   Clear
9:53 PM 64.4 °F 57.2 °F 77% 30.10 in 10.0 mi ENE 3.5 mph - N/A   Clear
11:14 PM 62.6 °F 57.2 °F 82% 30.10 in 10.0 mi East 5.8 mph - N/A   Clear
11:34 PM 60.8 °F 55.4 °F 82% 30.10 in 10.0 mi East 5.8 mph - N/A   Clear
11:52 PM 60.8 °F 55.4 °F 82% 30.10 in 10.0 mi Calm Calm - N/A   Clear